Dewpoint
53 53 50 32 24 24 25 26 33 29 30 31 33 33 32 30 30 29 43 57 64 66 67 70 72 73 73 73 73 73 73 73 72 73 73 73 73 73 73 73 72 72 72 70 70 69 70 70 70
53 50 39 27 18 17 13 27 28 29 27 24 26 25 22 22 30 32 53 58 65 67 68 70 70 72 72 72 72 72 73 73 72 73 73 73 73 73 73 73 72 72 72 70 68 69 70 70 69
54 47 36 28 20 12 7 19 21 24 25 23 23 21 18 18 26 31 51 57 66 68 69 69 70 72 72 72 72 72 73 73 72 72 73 73 72 72 72 73 72 72 71 70 70 69 68 69 69
50 46 38 24 22 17 10 11 22 22 22 23 25 22 21 25 27 35 50 64 66 68 69 69 70 71 72 72 72 72 72 73 72 72 72 72 72 72 72 72 72 71 70 70 69 68 67 69 69
44 38 31 30 24 18 15 16 15 15 17 18 19 19 17 19 30 52 54 65 65 67 68 69 69 71 71 72 72 72 72 73 73 72 72 72 72 72 72 71 71 71 70 70 68 67 67 68 68
40 36 28 23 18 20 20 18 17 16 16 16 16 15 16 18 19 28 58 63 66 66 68 68 67 69 70 71 71 71 71 72 72 72 72 72 72 71 71 71 71 71 70 70 69 67 67 68 68
35 31 30 25 15 16 17 21 19 19 18 17 18 16 18 19 21 37 55 58 62 66 67 68 69 68 67 68 69 70 70 70 71 71 71 70 70 70 70 70 70 70 70 69 68 67 66 67 65
38 35 29 29 28 25 23 22 21 20 19 20 19 16 16 19 33 35 44 57 61 63 67 67 67 69 69 69 66 67 68 68 69 69 68 67 67 68 67 67 68 69 68 68 67 66 66 65 59
36 30 25 25 27 28 28 25 26 26 26 24 22 21 19 20 30 46 54 58 62 64 65 66 67 67 69 69 67 65 65 66 66 66 65 64 67 67 66 66 66 67 66 66 65 64 63 59 59
32 29 25 25 25 25 27 29 30 30 30 30 29 28 26 26 25 26 35 49 60 62 64 65 66 67 67 68 68 69 69 69 68 68 67 67 67 67 66 63 63 64 64 63 62 60 58 51 47
24 20 19 18 18 19 18 18 22 21 20 26 22 21 20 24 26 26 30 41 54 60 63 65 66 67 67 67 68 68 68 68 68 68 67 67 66 65 64 64 63 62 59 58 56 53 40 38 39
16 17 18 19 19 18 18 19 18 19 20 20 19 19 19 18 20 28 26 28 38 52 60 64 65 66 66 67 67 67 66 66 66 66 66 65 64 63 63 62 61 59 56 51 47 39 36 38 37
15 15 16 16 16 16 13 14 15 14 15 16 17 18 18 18 18 23 27 28 35 47 53 60 65 65 65 66 66 66 66 65 65 64 63 63 62 62 61 59 58 57 53 48 40 37 38 38 37
17 16 13 15 14 14 16 18 13 7 6 9 12 13 14 14 17 20 25 25 26 29 41 55 62 64 65 65 65 65 65 65 64 63 62 61 61 59 58 57 55 54 51 44 39 37 38 38 38
17 15 14 14 15 14 15 13 11 12 11 9 8 7 11 15 18 21 26 27 26 27 45 55 57 63 64 64 64 64 63 63 62 62 62 62 61 60 57 55 53 51 45 42 41 39 39 39 38
15 15 12 9 12 14 14 10 12 14 13 11 11 11 11 12 15 21 26 26 25 31 45 57 58 59 64 64 64 64 63 62 62 61 60 59 58 58 56 55 52 47 42 41 40 39 39 38 38
15 9 9 10 12 12 12 12 13 13 12 11 11 12 12 12 13 14 19 24 26 27 31 47 57 57 63 64 63 62 62 61 61 60 60 59 58 57 55 54 50 44 41 41 40 39 39 38 37
6 9 12 12 12 14 14 14 15 15 14 13 12 12 12 11 12 13 17 24 26 26 30 44 55 57 61 63 62 62 61 61 59 59 58 58 57 56 55 53 48 43 41 41 40 38 38 38 37
14 15 15 14 15 15 15 16 19 19 18 16 15 14 13 11 12 13 14 21 25 28 27 33 42 55 60 60 60 60 59 60 58 58 57 56 56 55 53 50 45 42 39 40 39 38 37 36 37
16 16 13 13 13 14 12 13 15 15 14 16 15 14 13 11 11 11 13 15 25 26 28 32 40 50 55 58 60 60 60 59 58 58 57 56 55 54 53 51 46 42 40 40 39 38 37 36 37
13 14 13 14 13 11 13 13 10 7 11 18 17 14 13 7 6 6 7 11 16 24 28 31 44 52 55 56 60 58 58 57 57 56 55 55 54 53 52 50 48 44 41 39 38 38 36 36 36
12 14 14 11 11 7 14 4 6 7 10 17 19 24 25 24 10 7 5 5 15 19 25 30 46 53 55 55 58 57 56 54 56 56 56 55 53 52 50 49 47 46 43 39 39 38 37 36 34
11 12 10 13 12 12 8 9 5 14 12 14 16 19 25 27 22 9 7 7 11 18 21 27 41 51 55 54 56 57 56 55 56 55 55 53 53 52 52 50 46 42 41 40 39 38 37 36 35
12 12 10 7 2 -8 6 10 6 11 15 15 16 18 22 27 26 28 24 22 20 31 30 30 38 47 54 55 55 55 55 55 54 54 53 52 51 51 51 50 47 43 41 40 39 38 37 37 35
3 -3 -7 -10 -14 -7 0 1 7 14 17 19 19 19 23 26 28 26 28 29 31 31 34 38 43 46 53 54 54 54 54 55 53 53 52 51 50 50 49 49 48 46 41 40 40 39 38 37 37
3 3 6 -4 -4 -0 2 3 12 12 14 16 18 20 21 22 24 27 26 27 28 30 33 37 40 44 50 53 53 54 54 54 54 54 53 52 50 49 49 49 48 47 45 42 39 39 40 39 40
-1 3 14 10 -8 -6 -0 11 15 10 11 13 14 16 19 21 23 26 28 28 29 29 30 32 36 38 40 45 51 54 54 54 53 53 53 52 51 50 49 48 47 47 46 44 41 41 41 40 39
10 16 9 0 -8 -13 -5 2 3 9 11 11 13 15 17 20 20 22 28 28 29 29 29 30 32 33 35 38 41 43 45 50 52 52 52 51 50 49 48 43 43 42 44 43 43 42 39 40 39
7 9 15 14 8 -0 -5 -5 9 12 13 12 13 16 17 19 19 20 24 27 28 29 29 30 30 31 33 35 37 38 39 42 44 49 50 48 43 43 45 44 39 41 42 40 41 42 40 39 38
10 14 17 7 -0 7 5 -1 16 15 15 15 14 16 17 19 19 20 22 25 26 27 28 28 29 30 32 33 35 35 36 37 36 40 41 43 44 45 43 42 41 40 40 41 42 40 39 39 38
Lifted_Index
5 5 6 6 6 5 5 6 6 6 5 5 6 6 6 7 6 5 3 1 -1 -1 -2 -3 -4 -5 -5 -5 -5 -5 -5 -5 -5 -5 -5 -5 -5 -6 -6 -6 -6 -5 -5 -4 -3 -3 -3 -3 -3
4 5 6 6 5 4 4 5 5 5 5 5 6 6 7 7 7 6 4 1 -1 -2 -3 -3 -4 -5 -5 -5 -5 -5 -6 -5 -5 -5 -5 -5 -5 -5 -6 -6 -6 -6 -5 -4 -3 -3 -3 -3 -3
4 5 6 6 5 4 4 4 5 5 5 5 6 6 7 7 7 6 4 0 -2 -3 -3 -4 -4 -5 -5 -5 -5 -5 -6 -6 -5 -5 -5 -5 -5 -5 -6 -6 -6 -6 -5 -4 -3 -2 -2 -3 -3
5 5 6 5 4 4 4 5 5 5 5 6 5 6 7 7 7 6 3 -1 -3 -4 -4 -4 -4 -5 -5 -5 -5 -5 -6 -6 -6 -6 -5 -5 -5 -5 -6 -6 -6 -5 -5 -4 -3 -2 -2 -2 -3
5 5 5 5 4 4 5 5 6 6 6 6 6 5 6 7 6 5 1 -2 -4 -4 -4 -4 -5 -5 -5 -5 -5 -5 -5 -6 -6 -6 -6 -5 -5 -5 -5 -5 -5 -5 -5 -4 -3 -2 -2 -2 -2
6 5 5 5 4 5 6 7 7 7 6 6 6 6 6 7 7 5 1 -3 -4 -5 -5 -5 -5 -5 -5 -5 -5 -5 -5 -6 -6 -6 -6 -5 -5 -5 -5 -5 -5 -5 -4 -3 -2 -2 -1 -1 -1
6 6 5 5 5 5 6 7 7 7 7 7 7 7 7 7 7 5 1 -2 -4 -5 -5 -5 -6 -6 -5 -5 -5 -5 -5 -5 -6 -6 -6 -5 -5 -4 -5 -5 -4 -4 -3 -3 -2 -1 -1 -0 -0
6 6 6 6 5 5 7 8 8 8 8 8 8 7 7 7 7 6 3 -1 -4 -5 -5 -6 -6 -6 -6 -5 -5 -5 -4 -5 -5 -5 -5 -5 -4 -4 -4 -4 -4 -3 -2 -2 -1 -0 1 1 1
7 7 6 6 6 6 8 8 8 8 9 9 9 8 8 8 8 6 3 -0 -3 -5 -6 -6 -6 -6 -6 -6 -5 -5 -4 -4 -5 -5 -5 -4 -4 -3 -3 -3 -3 -2 -2 -1 -0 1 1 2 2
8 8 7 7 7 8 8 9 8 8 9 9 9 9 9 8 8 7 5 1 -2 -4 -5 -6 -7 -6 -6 -6 -5 -5 -4 -4 -4 -4 -4 -4 -3 -3 -3 -2 -2 -2 -1 -0 1 2 2 2 3
9 9 9 10 9 9 9 8 8 8 9 9 9 9 9 9 8 8 6 3 -1 -3 -5 -6 -6 -7 -7 -6 -6 -5 -4 -4 -3 -3 -3 -3 -3 -2 -2 -2 -2 -1 -1 0 1 2 3 4 5
11 11 11 11 11 10 9 9 8 8 9 10 10 9 9 8 8 8 7 5 2 -0 -2 -4 -5 -6 -7 -7 -6 -5 -4 -3 -3 -3 -2 -2 -2 -2 -2 -1 -1 -1 -0 0 2 3 5 7 8
12 12 12 12 11 11 10 10 9 9 10 11 11 10 9 8 8 7 7 7 5 3 1 -2 -4 -6 -6 -6 -6 -5 -4 -3 -3 -2 -2 -2 -1 -1 -1 -1 -1 -0 0 1 3 5 7 9 10
12 11 11 10 9 9 9 9 9 10 11 12 12 11 10 9 8 8 7 7 7 6 4 0 -3 -5 -5 -5 -5 -4 -4 -3 -2 -2 -1 -1 -1 -1 -1 -1 -0 0 1 2 4 7 9 11 12
10 9 8 7 5 5 5 6 7 9 10 11 11 12 12 11 10 9 7 7 7 7 5 1 -2 -4 -5 -4 -4 -4 -3 -3 -2 -2 -1 -1 -1 -0 -0 -0 0 1 2 4 6 8 11 13 14
7 6 5 3 3 2 2 3 4 6 8 9 10 11 12 12 11 10 8 7 7 7 5 2 -1 -3 -5 -5 -4 -3 -3 -2 -2 -2 -1 -1 -1 -0 0 1 1 2 3 5 7 9 11 13 13
4 3 2 2 2 2 2 2 2 3 5 6 8 9 10 11 11 11 9 8 7 6 6 4 1 -2 -4 -5 -4 -4 -3 -2 -2 -1 -1 -1 -0 0 1 1 1 2 4 6 8 10 11 12 12
2 2 1 1 2 2 2 2 2 2 2 3 5 7 9 10 11 11 10 8 6 6 6 6 3 -1 -3 -4 -4 -3 -2 -2 -1 -1 -1 -1 -0 1 1 1 1 2 4 7 9 11 11 11 11
2 2 1 2 2 2 2 2 2 2 2 2 3 5 7 9 10 11 11 9 7 6 6 6 4 1 -2 -3 -3 -3 -2 -2 -1 -1 -1 -1 -0 0 1 1 1 1 3 6 9 10 11 11 11
2 2 2 2 2 2 2 2 2 2 1 1 2 3 6 8 10 10 11 10 8 6 5 6 5 2 -1 -2 -3 -3 -2 -2 -2 -2 -1 -1 -0 0 0 1 1 1 2 5 8 9 9 9 9
2 2 2 2 3 2 2 2 2 2 1 2 2 3 4 7 9 10 11 10 9 7 6 6 5 2 -1 -2 -2 -3 -2 -2 -2 -2 -1 -1 -0 -0 0 0 0 1 2 4 6 8 7 6 7
2 2 2 3 2 2 2 2 2 2 2 2 2 3 3 5 7 10 11 10 9 7 6 6 5 2 -1 -2 -2 -2 -2 -2 -1 -1 -1 -0 -0 -0 -0 -0 -0 -0 0 2 5 7 6 5 4
2 3 3 3 2 2 2 2 2 2 2 2 3 3 2 3 5 8 10 10 9 8 7 6 5 2 -0 -1 -2 -2 -1 -1 -0 -0 -0 0 0 0 -0 -0 -0 -1 -1 1 3 5 5 4 3
3 3 2 2 2 1 2 2 2 2 2 3 3 3 3 3 4 7 9 10 9 8 6 6 6 3 0 -1 -1 -2 -1 -1 0 1 1 1 1 1 0 0 -0 -0 -1 -0 1 2 2 2 2
2 2 1 1 1 1 2 2 2 3 3 3 4 4 4 3 3 6 8 9 9 8 6 5 5 3 0 -1 -1 -2 -2 -1 0 1 1 1 1 1 1 1 0 0 -0 -0 -0 0 1 1 1
2 2 1 1 1 1 2 2 2 3 4 4 5 5 5 4 4 4 6 8 8 7 6 5 4 2 0 -1 -1 -1 -2 -1 -0 1 1 1 1 2 2 2 1 1 1 -0 -1 -0 0 1 1
2 2 2 2 1 1 2 2 3 3 4 5 5 6 6 5 4 4 4 6 7 6 5 4 3 1 0 -0 -1 -1 -1 -1 -0 0 1 1 2 2 2 3 3 2 2 0 -1 -1 0 1 1
3 3 3 2 1 1 1 2 3 4 5 5 6 6 6 6 5 4 3 4 5 5 4 3 2 1 0 -0 -0 -0 -0 -0 -0 -0 0 1 1 2 2 3 3 3 2 1 0 -0 -0 0 1
3 3 3 2 1 1 1 2 4 5 6 6 6 7 7 6 5 4 4 4 3 3 3 2 1 0 0 -0 0 0 0 0 0 -0 -0 -0 0 1 1 2 2 2 2 2 1 1 0 0 1
3 3 3 2 2 2 2 2 4 6 6 6 7 7 7 6 6 5 5 4 3 3 3 2 1 0 -0 -0 0 0 0 1 0 0 -0 -1 -0 0 1 1 2 2 2 2 2 1 0 0 0